GW4632 Weather Reports


time (UTC)temp
C
wind
direction
speed
KPH
gust
KPH
rain 1hr
cm
rain 24hr
cm
rain mn
cm
humidity
%
barometer
mb
20260505184514 11 360 1.6 9.7 0.00 0.99 0.00 68 1014.2
20260505183017 11 337 8.0 16.1 0.00 0.99 0.00 66 1014.2
20260505181514 11 124 8.0 22.5 0.00 0.99 0.00 71 1014.1
20260505180013 11 292 9.7 19.3 0.00 0.99 0.00 72 1013.9
20260505174516 10 339 14.5 19.3 0.00 0.99 0.00 77 1013.8
20260505173017 10 277 9.7 16.1 0.00 0.99 0.00 76 1013.7
20260505171510 10 278 6.4 11.3 0.00 0.99 0.00 77 1013.6
20260505170017 9 41 6.4 17.7 0.00 0.99 0.00 82 1013.6
20260505164518 8 327 11.3 16.1 0.00 0.99 0.00 82 1013.5
20260505163008 8 42 6.4 11.3 0.00 0.99 0.00 85 1013.5
20260505161507 7 331 3.2 9.7 0.00 0.99 0.00 88 1013.3
20260505153019 6 290 1.6 6.4 0.00 0.99 0.00 90 1012.9
20260505151503 6 355 4.8 8.0 0.00 0.99 0.00 91 1012.8
20260505124535 5 325 3.2 6.4 0.00 0.99 0.00 94 1011.3
20260505123012 5 339 3.2 9.7 0.00 0.99 0.00 94 1011.1
20260505121517 5 320 3.2 8.0 0.00 0.99 0.00 94 1011.3
20260505120023 4 16 8.0 11.3 0.00 0.99 0.00 94 1011.2
20260505114523 4 345 6.4 12.9 0.00 0.99 0.00 94 1010.9
20260505113024 4 292 4.8 9.7 0.00 0.99 0.00 94 1010.9
20260505111512 3 313 3.2 6.4 0.00 0.99 0.00 94 1011.0
20260505101527 3 285 4.8 9.7 0.00 0.99 0.00 93 1011.3
20260505100014 3 244 3.2 4.8 0.00 0.99 0.00 93 1011.4
20260505094520 3 345 4.8 9.7 0.00 0.99 0.00 93 1011.3
20260505093004 4 304 4.8 9.7 0.00 0.99 0.00 93 1011.2
20260505091507 4 347 6.4 9.7 0.00 0.99 0.00 92 1011.4
20260505090011 4 160 3.2 4.8 0.00 0.99 0.00 92 1011.5
20260505084534 4 219 3.2 4.8 0.00 0.99 0.00 91 1011.8
20260505083018 4 166 0.0 1.6 0.00 0.99 0.00 91 1012.0
20260505081511 4 166 0.0 4.8 0.00 0.99 0.00 91 1012.0
20260505080009 4 214 0.0 3.2 0.00 0.99 0.00 91 1011.9
20260505074512 4 229 0.0 3.2 0.00 0.99 0.00 90 1012.1
20260505073016 4 273 3.2 8.0 0.00 0.99 0.00 90 1012.1
20260505071522 4 245 3.2 6.4 0.00 0.99 0.00 91 1012.1
20260505070033 4 271 4.8 8.0 0.00 0.99 0.00 92 1011.8
20260505064508 4 141 4.8 11.3 0.00 0.99 0.99 92 1011.6
20260505063010 4 286 6.4 12.9 0.00 0.99 0.99 92 1011.1
20260505061520 5 342 6.4 11.3 0.05 0.99 0.99 92 1010.9
20260505060028 5 337 9.7 12.9 0.08 0.99 0.99 92 1011.3
20260505054527 5 326 4.8 6.4 0.18 0.99 0.99 91 1011.5
20260505053011 5 128 4.8 8.0 0.20 0.99 0.99 92 1011.6
20260505051517 5 349 8.0 14.5 0.15 0.94 0.94 92 1012.5
20260505041530 5 174 4.8 16.1 0.10 0.79 0.79 88 1011.8
20260505040013 5 208 9.7 16.1 0.08 0.76 0.76 92 1011.6
20260505034524 4 219 3.2 3.2 0.05 0.74 0.74 93 1012.0
20260505033022 4 170 0.0 3.2 0.00 0.69 0.69 93 1012.2
20260505031527 4 171 1.6 12.9 0.00 0.69 0.69 92 1011.5
20260505030026 5 128 9.7 17.7 0.00 0.69 0.69 91 1011.2
20260505024515 5 169 3.2 20.9 0.18 0.69 0.69 90 1010.8
20260505023019 4 220 11.3 30.6 0.20 0.69 0.69 91 1011.1
20260505021523 5 214 19.3 33.8 0.23 0.69 0.69 91 1011.5
20260505020024 5 209 19.3 30.6 0.30 0.69 0.69 92 1011.5
20260505014528 5 169 24.1 46.7 0.13 0.51 0.51 89 1012.0
20260505013016 7 131 22.5 30.6 0.10 0.48 0.48 86 1011.7
20260505011543 7 243 11.3 29.0 0.08 0.46 0.46 82 1011.0
20260505010014 8 314 3.2 19.3 0.00 0.38 0.38 79 1010.3
20260505004507 8 293 20.9 29.0 0.00 0.38 0.38 74 1009.7
20260505003012 9 283 19.3 35.4 0.00 0.38 0.38 73 1009.3
20260505001503 9 287 14.5 37.0 0.00 0.38 0.38 75 1009.6
20260505000004 10 287 19.3 35.4 0.00 0.38 0.38 73 1009.9
20260504234507 10 236 25.7 38.6 0.00 0.38 0.38 72 1009.7
20260504233008 11 256 20.9 40.2 0.00 0.38 0.38 70 1009.7
20260504231515 11 286 24.1 30.6 0.10 0.38 0.38 71 1010.1
20260504230004 11 281 17.7 24.1 0.28 0.38 0.38 76 1010.3
20260504224511 9 217 9.7 29.0 0.33 0.38 0.38 85 1010.6
20260504223008 8 250 11.3 24.1 0.38 0.38 0.38 85 1010.8
20260504221512 9 125 14.5 22.5 0.28 0.28 0.28 82 1011.1
20260504220017 9 221 4.8 22.5 0.10 0.10 0.10 79 1010.6
20260504214522 10 139 8.0 30.6 0.05 0.05 0.05 75 1011.0
20260504213004 12 213 12.9 24.1 0.00 0.00 0.00 59 1010.3
20260504211511 13 140 8.0 17.7 0.00 0.00 0.00 57 1010.8
20260504210019 14 269 14.5 24.1 0.00 0.00 0.00 50 1010.7
20260504204520 14 283 9.7 29.0 0.00 0.00 0.00 51 1010.7
20260504203025 14 329 19.3 27.4 0.00 0.00 0.00 51 1010.8
20260504201507 13 285 16.1 25.7 0.00 0.00 0.00 52 1011.1
20260504200013 13 309 12.9 25.7 0.00 0.00 0.00 56 1011.4
20260504194517 12 290 12.9 27.4 0.00 0.00 0.00 57 1011.6
20260504193020 12 285 17.7 30.6 0.00 0.00 0.00 61 1011.8
20260504191524 12 324 12.9 24.1 0.00 0.00 0.00 62 1011.9
20260504190006 12 315 17.7 25.7 0.00 0.00 0.00 61 1012.0